Time,TemperatureF,DewpointF,PressureIn,WindDirection,WindDirectionDegrees,WindSpeedMPH,WindSpeedGustMPH,Humidity,HourlyPrecipIn,Conditions,Clouds,dailyrainin,SoftwareType,DateUTC
2013-01-25 00:02:00,26.4,12.4,30.16,SSE,157,3.0,11.0,55,0.00,,OVC045,0.00,VWS V14.00,2013-01-25 06:02:00,
2013-01-25 00:07:00,26.4,12.4,30.16,SSE,148,2.0,11.0,55,0.00,,OVC045,0.00,VWS V14.00,2013-01-25 06:07:00,
2013-01-25 00:12:00,26.6,12.6,30.17,SSE,148,0.0,11.0,55,0.00,,OVC045,0.00,VWS V14.00,2013-01-25 06:12:00,
2013-01-25 00:17:00,26.6,12.6,30.17,SE,145,0.0,11.0,55,0.00,,OVC045,0.00,VWS V14.00,2013-01-25 06:17:00,
2013-01-25 00:22:00,26.6,12.6,30.17,SE,142,1.0,11.0,55,0.00,,OVC045,0.00,VWS V14.00,2013-01-25 06:22:00,
2013-01-25 00:27:00,26.7,12.3,30.17,ESE,106,1.0,11.0,54,0.00,,OVC045,0.00,VWS V14.00,2013-01-25 06:27:00,
2013-01-25 00:32:00,26.8,12.4,30.17,SSE,162,0.0,0.0,54,0.00,,OVC045,0.00,VWS V14.00,2013-01-25 06:32:00,
2013-01-25 00:37:00,26.9,12.5,30.18,SSE,162,0.0,2.0,54,0.00,,OVC045,0.00,VWS V14.00,2013-01-25 06:37:00,
2013-01-25 00:42:00,26.9,12.5,30.18,SSE,161,1.0,3.0,54,0.00,,OVC045,0.00,VWS V14.00,2013-01-25 06:42:00,
2013-01-25 00:47:00,26.9,12.1,30.18,ESE,104,0.0,4.0,53,0.00,,OVC045,0.00,VWS V14.00,2013-01-25 06:47:00,
2013-01-25 00:52:00,27.0,12.2,30.18,ESE,104,0.0,4.0,53,0.00,,OVC045,0.00,VWS V14.00,2013-01-25 06:52:00,
2013-01-25 00:57:00,27.1,11.8,30.18,NE,52,0.0,4.0,52,0.00,,OVC045,0.00,VWS V14.00,2013-01-25 06:57:00,
2013-01-25 01:02:00,27.1,11.8,30.18,ESE,111,0.0,0.0,52,0.00,,OVC045,0.00,VWS V14.00,2013-01-25 07:02:00,
2013-01-25 01:07:00,27.2,12.4,30.18,NNE,28,0.0,1.0,53,0.00,,OVC045,0.00,VWS V14.00,2013-01-25 07:07:00,
2013-01-25 01:12:00,27.2,11.9,30.17,ENE,72,0.0,3.0,52,0.00,,OVC045,0.00,VWS V14.00,2013-01-25 07:12:00,
2013-01-25 01:17:00,27.1,11.8,30.16,ENE,76,0.0,3.0,52,0.00,,OVC045,0.00,VWS V14.00,2013-01-25 07:17:00,
2013-01-25 01:22:00,27.1,11.4,30.15,SE,125,0.0,6.0,51,0.00,,OVC045,0.00,VWS V14.00,2013-01-25 07:22:00,
2013-01-25 01:27:00,27.0,11.3,30.15,East,97,0.0,6.0,51,0.00,,OVC045,0.00,VWS V14.00,2013-01-25 07:27:00,
2013-01-25 01:32:00,27.0,11.3,30.15,SSE,154,0.0,2.0,51,0.00,,OVC045,0.00,VWS V14.00,2013-01-25 07:32:00,
2013-01-25 01:37:00,27.0,11.3,30.13,SE,146,1.0,7.0,51,0.00,,OVC045,0.00,VWS V14.00,2013-01-25 07:37:00,
2013-01-25 01:42:00,27.0,11.3,30.14,SE,146,0.0,7.0,51,0.00,,OVC045,0.00,VWS V14.00,2013-01-25 07:42:00,
2013-01-25 01:47:00,27.0,11.3,30.13,SE,143,5.0,8.0,51,0.00,,OVC045,0.00,VWS V14.00,2013-01-25 07:47:00,
2013-01-25 01:52:00,27.0,10.9,30.12,SSE,155,1.0,11.0,50,0.00,,OVC045,0.00,VWS V14.00,2013-01-25 07:52:00,
2013-01-25 01:57:00,27.0,10.9,30.12,SSE,156,3.0,11.0,50,0.00,,OVC045,0.00,VWS V14.00,2013-01-25 07:57:00,
2013-01-25 02:02:00,27.0,10.9,30.11,SSE,160,4.0,7.0,50,0.00,,,0.00,VWS V14.00,2013-01-25 08:02:00,
2013-01-25 02:07:00,27.0,10.9,30.11,SSE,166,5.0,9.0,50,0.00,,,0.00,VWS V14.00,2013-01-25 08:07:00,
2013-01-25 02:12:00,27.0,10.9,30.10,SSE,159,2.0,9.0,50,0.00,,,0.00,VWS V14.00,2013-01-25 08:12:00,
2013-01-25 02:17:00,27.0,10.9,30.10,SSE,164,5.0,11.0,50,0.00,,,0.00,VWS V14.00,2013-01-25 08:17:00,
2013-01-25 02:22:00,27.1,10.9,30.11,SSE,159,0.0,11.0,50,0.00,,,0.00,VWS V14.00,2013-01-25 08:22:00,
2013-01-25 02:27:00,27.2,11.0,30.13,SSE,159,0.0,11.0,50,0.00,,,0.00,VWS V14.00,2013-01-25 08:27:00,
2013-01-25 02:32:00,27.2,11.0,30.11,SSE,154,1.0,6.0,50,0.00,,,0.00,VWS V14.00,2013-01-25 08:32:00,
2013-01-25 02:37:00,27.2,11.0,30.12,SSE,152,0.0,6.0,50,0.00,,,0.00,VWS V14.00,2013-01-25 08:37:00,
2013-01-25 02:42:00,27.3,10.7,30.12,SSE,166,5.0,6.0,49,0.00,,,0.00,VWS V14.00,2013-01-25 08:42:00,
2013-01-25 02:47:00,27.3,10.7,30.11,SSE,156,3.0,10.0,49,0.00,,,0.00,VWS V14.00,2013-01-25 08:47:00,
2013-01-25 02:52:00,27.3,10.7,30.10,SE,146,4.0,10.0,49,0.00,,,0.00,VWS V14.00,2013-01-25 08:52:00,
2013-01-25 02:57:00,27.3,10.7,30.10,ESE,113,1.0,10.0,49,0.00,,,0.00,VWS V14.00,2013-01-25 08:57:00,
2013-01-25 03:02:00,27.3,10.7,30.10,SSE,148,1.0,5.0,49,0.00,,OVC031,0.00,VWS V14.00,2013-01-25 09:02:00,
2013-01-25 03:07:00,27.3,10.7,30.10,SSE,148,0.0,5.0,49,0.00,,OVC031,0.00,VWS V14.00,2013-01-25 09:07:00,
2013-01-25 03:12:00,27.3,10.7,30.10,SSE,160,7.0,7.0,49,0.00,,OVC031,0.00,VWS V14.00,2013-01-25 09:12:00,
2013-01-25 03:17:00,27.3,10.7,30.10,South,179,0.0,7.0,49,0.00,,OVC031,0.00,VWS V14.00,2013-01-25 09:17:00,
2013-01-25 03:22:00,27.3,10.7,30.10,South,179,2.0,7.0,49,0.00,,OVC031,0.00,VWS V14.00,2013-01-25 09:22:00,
2013-01-25 03:27:00,27.4,10.8,30.10,SSE,167,2.0,7.0,49,0.00,,OVC031,0.00,VWS V14.00,2013-01-25 09:27:00,
2013-01-25 03:32:00,27.4,10.8,30.10,SSE,167,0.0,1.0,49,0.00,,OVC031,0.00,VWS V14.00,2013-01-25 09:32:00,
2013-01-25 03:37:00,27.4,10.8,30.10,SSE,167,2.0,2.0,49,0.00,,OVC031,0.00,VWS V14.00,2013-01-25 09:37:00,
2013-01-25 03:42:00,27.4,10.8,30.11,SSE,167,0.0,4.0,49,0.00,,OVC031,0.00,VWS V14.00,2013-01-25 09:42:00,
2013-01-25 03:47:00,27.4,10.8,30.11,SSE,167,0.0,4.0,49,0.00,,OVC031,0.00,VWS V14.00,2013-01-25 09:47:00,
2013-01-25 03:52:00,27.4,10.8,30.10,SSE,167,2.0,4.0,49,0.00,,OVC031,0.00,VWS V14.00,2013-01-25 09:52:00,
2013-01-25 03:57:00,27.3,10.7,30.10,SSE,167,0.0,5.0,49,0.00,,OVC031,0.00,VWS V14.00,2013-01-25 09:57:00,
2013-01-25 04:02:00,27.3,10.7,30.09,SSE,167,0.0,1.0,49,0.00,,OVC030,0.00,VWS V14.00,2013-01-25 10:02:00,
2013-01-25 04:07:00,27.3,10.7,30.10,SSE,167,0.0,1.0,49,0.00,,OVC030,0.00,VWS V14.00,2013-01-25 10:07:00,
2013-01-25 04:12:00,27.4,11.2,30.10,SSE,167,0.0,1.0,50,0.00,,OVC030,0.00,VWS V14.00,2013-01-25 10:12:00,
2013-01-25 04:17:00,27.4,11.2,30.10,SSE,167,0.0,1.0,50,0.00,,OVC030,0.00,VWS V14.00,2013-01-25 10:17:00,
2013-01-25 04:22:00,27.5,11.3,30.10,SSE,167,0.0,1.0,50,0.00,,OVC030,0.00,VWS V14.00,2013-01-25 10:22:00,
2013-01-25 04:27:00,27.4,10.8,30.10,SSE,167,0.0,1.0,49,0.00,,OVC030,0.00,VWS V14.00,2013-01-25 10:27:00,
2013-01-25 04:32:00,27.4,10.8,30.10,SSE,167,0.0,0.0,49,0.00,,OVC030,0.00,VWS V14.00,2013-01-25 10:32:00,
2013-01-25 04:37:00,27.4,10.8,30.10,SSE,167,2.0,3.0,49,0.00,,OVC030,0.00,VWS V14.00,2013-01-25 10:37:00,
2013-01-25 04:42:00,27.3,10.7,30.09,SSE,167,0.0,5.0,49,0.00,,OVC030,0.00,VWS V14.00,2013-01-25 10:42:00,
2013-01-25 04:47:00,27.3,10.7,30.07,SSE,167,4.0,5.0,49,0.00,,OVC030,0.00,VWS V14.00,2013-01-25 10:47:00,
2013-01-25 04:52:00,27.3,11.1,30.08,SSE,167,0.0,5.0,50,0.00,,OVC030,0.00,VWS V14.00,2013-01-25 10:52:00,
2013-01-25 04:57:00,27.3,10.7,30.08,SSE,167,3.0,5.0,49,0.00,,OVC030,0.00,VWS V14.00,2013-01-25 10:57:00,
2013-01-25 05:02:00,27.3,10.7,30.08,SSE,167,0.0,3.0,49,0.00,,OVC038,0.00,VWS V14.00,2013-01-25 11:02:00,
2013-01-25 05:07:00,27.3,11.1,30.08,SSE,167,0.0,3.0,50,0.00,,OVC038,0.00,VWS V14.00,2013-01-25 11:07:00,
2013-01-25 05:12:00,27.3,11.1,30.09,SSE,167,0.0,3.0,50,0.00,,OVC038,0.00,VWS V14.00,2013-01-25 11:12:00,
2013-01-25 05:17:00,27.4,11.7,30.09,SSE,167,0.0,3.0,51,0.00,,OVC038,0.00,VWS V14.00,2013-01-25 11:17:00,
2013-01-25 05:22:00,27.5,11.8,30.09,SSE,167,0.0,3.0,51,0.00,,OVC038,0.00,VWS V14.00,2013-01-25 11:22:00,
2013-01-25 05:27:00,27.5,12.2,30.10,SSE,167,0.0,3.0,52,0.00,,OVC038,0.00,VWS V14.00,2013-01-25 11:27:00,
2013-01-25 05:32:00,27.5,11.8,30.09,SSE,167,0.0,2.0,51,0.00,,OVC038,0.00,VWS V14.00,2013-01-25 11:32:00,
2013-01-25 05:37:00,27.5,12.2,30.08,SSE,167,0.0,2.0,52,0.00,,OVC038,0.00,VWS V14.00,2013-01-25 11:37:00,
2013-01-25 05:42:00,27.6,12.3,30.06,SSE,167,4.0,4.0,52,0.00,,OVC038,0.00,VWS V14.00,2013-01-25 11:42:00,
2013-01-25 05:47:00,27.6,12.7,30.07,SSE,167,0.0,4.0,53,0.00,,OVC038,0.00,VWS V14.00,2013-01-25 11:47:00,
2013-01-25 05:52:00,27.6,13.1,30.07,SSE,167,0.0,4.0,54,0.00,,OVC038,0.00,VWS V14.00,2013-01-25 11:52:00,
2013-01-25 05:57:00,27.7,12.8,30.08,SSE,167,0.0,4.0,53,0.00,,OVC038,0.00,VWS V14.00,2013-01-25 11:57:00,
2013-01-25 06:02:00,27.7,12.8,30.07,SSE,167,0.0,0.0,53,0.00,,OVC038,0.00,VWS V14.00,2013-01-25 12:02:00,
2013-01-25 06:07:00,27.7,12.8,30.06,SSE,167,0.0,0.0,53,0.00,,OVC038,0.00,VWS V14.00,2013-01-25 12:07:00,
2013-01-25 06:12:00,27.7,12.8,30.07,SSE,167,0.0,0.0,53,0.00,,OVC038,0.00,VWS V14.00,2013-01-25 12:12:00,
2013-01-25 06:17:00,27.7,12.8,30.07,SSE,167,0.0,1.0,53,0.00,,OVC038,0.00,VWS V14.00,2013-01-25 12:17:00,
2013-01-25 06:22:00,27.7,13.2,30.07,SSE,167,0.0,1.0,54,0.00,,OVC038,0.00,VWS V14.00,2013-01-25 12:22:00,
2013-01-25 06:27:00,27.8,13.8,30.07,SSE,167,0.0,1.0,55,0.00,,OVC038,0.00,VWS V14.00,2013-01-25 12:27:00,
2013-01-25 06:32:00,28.1,15.2,30.06,SSE,167,0.0,1.0,58,0.00,,OVC038,0.00,VWS V14.00,2013-01-25 12:32:00,
2013-01-25 06:37:00,28.1,14.8,30.06,SSE,167,0.0,1.0,57,0.00,,OVC038,0.00,VWS V14.00,2013-01-25 12:37:00,
2013-01-25 06:42:00,28.1,14.4,30.07,SSE,167,0.0,1.0,56,0.00,,OVC038,0.00,VWS V14.00,2013-01-25 12:42:00,
2013-01-25 06:47:00,27.9,13.8,30.06,SSE,167,0.0,1.0,55,0.00,,OVC038,0.00,VWS V14.00,2013-01-25 12:47:00,
2013-01-25 06:52:00,27.9,13.8,30.07,SSE,167,0.0,1.0,55,0.00,,OVC038,0.00,VWS V14.00,2013-01-25 12:52:00,
2013-01-25 06:57:00,27.8,13.3,30.08,SSE,167,0.0,1.0,54,0.00,,OVC038,0.00,VWS V14.00,2013-01-25 12:57:00,
2013-01-25 07:02:00,27.7,13.2,30.07,SSE,167,0.0,0.0,54,0.00,,OVC024,0.00,VWS V14.00,2013-01-25 13:02:00,
2013-01-25 07:07:00,27.6,13.1,30.08,SSE,167,0.0,0.0,54,0.00,,OVC024,0.00,VWS V14.00,2013-01-25 13:07:00,
2013-01-25 07:12:00,27.6,13.1,30.08,SSE,167,0.0,0.0,54,0.00,,OVC024,0.00,VWS V14.00,2013-01-25 13:12:00,
2013-01-25 07:17:00,27.6,13.1,30.09,SSE,167,0.0,0.0,54,0.00,,OVC024,0.00,VWS V14.00,2013-01-25 13:17:00,
2013-01-25 07:22:00,27.6,13.1,30.09,SSE,167,0.0,0.0,54,0.00,,OVC024,0.00,VWS V14.00,2013-01-25 13:22:00,
2013-01-25 07:27:00,27.7,13.2,30.09,SSE,167,0.0,0.0,54,0.00,,OVC024,0.00,VWS V14.00,2013-01-25 13:27:00,
2013-01-25 07:32:00,27.8,13.3,30.08,SSE,167,0.0,0.0,54,0.00,,OVC024,0.00,VWS V14.00,2013-01-25 13:32:00,
2013-01-25 07:37:00,27.9,13.8,30.09,SSE,167,0.0,0.0,55,0.00,,OVC024,0.00,VWS V14.00,2013-01-25 13:37:00,
2013-01-25 07:42:00,27.9,13.8,30.09,SSE,167,0.0,0.0,55,0.00,,OVC024,0.00,VWS V14.00,2013-01-25 13:42:00,
2013-01-25 07:47:00,28.0,13.9,30.09,SSE,167,0.0,0.0,55,0.00,,OVC024,0.00,VWS V14.00,2013-01-25 13:47:00,
2013-01-25 07:52:00,28.1,14.4,30.09,SSE,167,0.0,0.0,56,0.00,,OVC024,0.00,VWS V14.00,2013-01-25 13:52:00,
2013-01-25 07:57:00,28.2,14.5,30.09,SSE,167,1.0,1.0,56,0.00,,OVC024,0.00,VWS V14.00,2013-01-25 13:57:00,
2013-01-25 08:02:00,28.3,14.6,30.09,SSE,167,0.0,2.0,56,0.00,,OVC037,0.00,VWS V14.00,2013-01-25 14:02:00,
2013-01-25 08:07:00,28.4,14.7,30.09,SSE,167,0.0,2.0,56,0.00,,OVC037,0.00,VWS V14.00,2013-01-25 14:07:00,
2013-01-25 08:12:00,28.6,15.3,30.09,SSE,167,0.0,2.0,57,0.00,,OVC037,0.00,VWS V14.00,2013-01-25 14:12:00,
2013-01-25 08:17:00,28.7,15.8,30.09,SSE,167,0.0,3.0,58,0.00,,OVC037,0.00,VWS V14.00,2013-01-25 14:17:00,
2013-01-25 08:22:00,28.8,16.3,30.09,SSE,167,0.0,4.0,59,0.00,,OVC037,0.00,VWS V14.00,2013-01-25 14:22:00,
2013-01-25 08:27:00,28.8,16.3,30.09,SSE,167,0.0,4.0,59,0.00,,OVC037,0.00,VWS V14.00,2013-01-25 14:27:00,
2013-01-25 08:32:00,28.9,16.8,30.10,South,170,0.0,3.0,60,0.00,,OVC037,0.00,VWS V14.00,2013-01-25 14:32:00,
2013-01-25 08:37:00,29.1,17.0,30.09,South,170,0.0,3.0,60,0.00,,OVC037,0.00,VWS V14.00,2013-01-25 14:37:00,
2013-01-25 08:42:00,29.2,17.4,30.10,West,272,0.0,4.0,61,0.00,,OVC037,0.00,VWS V14.00,2013-01-25 14:42:00,
2013-01-25 08:47:00,29.4,17.6,30.10,WNW,295,0.0,4.0,61,0.00,,OVC037,0.00,VWS V14.00,2013-01-25 14:47:00,
2013-01-25 08:52:00,29.6,18.2,30.10,WNW,295,0.0,4.0,62,0.00,,OVC037,0.00,VWS V14.00,2013-01-25 14:52:00,
2013-01-25 08:57:00,29.8,18.0,30.10,WNW,295,0.0,4.0,61,0.00,,OVC037,0.00,VWS V14.00,2013-01-25 14:57:00,
2013-01-25 09:02:00,30.0,18.6,30.10,WNW,295,0.0,0.0,62,0.00,,OVC037,0.00,VWS V14.00,2013-01-25 15:02:00,
2013-01-25 09:07:00,30.1,18.7,30.10,WNW,284,0.0,4.0,62,0.00,,OVC037,0.00,VWS V14.00,2013-01-25 15:07:00,
2013-01-25 09:12:00,30.2,18.8,30.10,West,265,0.0,4.0,62,0.00,,OVC037,0.00,VWS V14.00,2013-01-25 15:12:00,
2013-01-25 09:17:00,30.2,18.8,30.10,WNW,300,0.0,5.0,62,0.00,,OVC037,0.00,VWS V14.00,2013-01-25 15:17:00,
2013-01-25 09:22:00,30.3,18.9,30.10,West,262,0.0,5.0,62,0.00,,OVC037,0.00,VWS V14.00,2013-01-25 15:22:00,
2013-01-25 09:27:00,30.4,19.0,30.10,West,262,1.0,5.0,62,0.00,,OVC037,0.00,VWS V14.00,2013-01-25 15:27:00,
2013-01-25 09:32:00,30.5,19.4,30.11,West,273,0.0,2.0,63,0.00,,OVC037,0.00,VWS V14.00,2013-01-25 15:32:00,
2013-01-25 09:37:00,30.7,19.6,30.10,West,259,0.0,5.0,63,0.00,,OVC037,0.00,VWS V14.00,2013-01-25 15:37:00,
2013-01-25 09:42:00,30.9,19.8,30.11,WNW,293,0.0,5.0,63,0.00,,OVC037,0.00,VWS V14.00,2013-01-25 15:42:00,
2013-01-25 09:47:00,31.2,19.7,30.10,WNW,286,4.0,5.0,62,0.00,,OVC037,0.00,VWS V14.00,2013-01-25 15:47:00,
2013-01-25 09:52:00,31.3,19.8,30.11,WSW,242,2.0,7.0,62,0.00,,OVC037,0.00,VWS V14.00,2013-01-25 15:52:00,
2013-01-25 09:57:00,31.4,19.9,30.11,West,272,3.0,7.0,62,0.00,,OVC037,0.00,VWS V14.00,2013-01-25 15:57:00,
2013-01-25 10:02:00,31.6,20.1,30.11,West,267,0.0,3.0,62,0.00,,OVC031,0.00,VWS V14.00,2013-01-25 16:02:00,
2013-01-25 10:07:00,32.1,20.2,30.11,NW,321,3.0,3.0,61,0.00,,OVC031,0.00,VWS V14.00,2013-01-25 16:07:00,
2013-01-25 10:12:00,32.2,20.3,30.11,West,270,4.0,7.0,61,0.00,,OVC031,0.00,VWS V14.00,2013-01-25 16:12:00,
2013-01-25 10:17:00,32.3,20.0,30.11,WNW,286,0.0,7.0,60,0.00,,OVC031,0.00,VWS V14.00,2013-01-25 16:17:00,
2013-01-25 10:22:00,32.5,20.6,30.11,NW,309,3.0,7.0,61,0.00,,OVC031,0.00,VWS V14.00,2013-01-25 16:22:00,
2013-01-25 10:27:00,32.8,20.5,30.11,North,0,4.0,7.0,60,0.00,,OVC031,0.00,VWS V14.00,2013-01-25 16:27:00,
2013-01-25 10:32:00,33.3,21.3,30.10,West,272,1.0,5.0,61,0.00,,OVC031,0.00,VWS V14.00,2013-01-25 16:32:00,
2013-01-25 10:37:00,33.7,21.3,30.10,West,277,4.0,6.0,60,0.00,,OVC031,0.00,VWS V14.00,2013-01-25 16:37:00,
2013-01-25 10:42:00,33.9,21.5,30.10,West,269,1.0,6.0,60,0.00,,OVC031,0.00,VWS V14.00,2013-01-25 16:42:00,
2013-01-25 10:47:00,34.3,21.9,30.10,NW,306,5.0,8.0,60,0.00,,OVC031,0.00,VWS V14.00,2013-01-25 16:47:00,
2013-01-25 10:52:00,34.4,21.6,30.10,NW,321,1.0,9.0,59,0.00,,OVC031,0.00,VWS V14.00,2013-01-25 16:52:00,
2013-01-25 10:57:00,34.4,22.0,30.10,North,352,0.0,9.0,60,0.00,,OVC031,0.00,VWS V14.00,2013-01-25 16:57:00,
2013-01-25 11:02:00,34.7,22.2,30.10,WNW,301,3.0,5.0,60,0.00,,BKN250,0.00,VWS V14.00,2013-01-25 17:02:00,
2013-01-25 11:07:00,35.1,22.6,30.09,WNW,290,0.0,6.0,60,0.00,,BKN250,0.00,VWS V14.00,2013-01-25 17:07:00,
2013-01-25 11:12:00,35.5,22.2,30.10,North,1,2.0,7.0,58,0.00,,BKN250,0.00,VWS V14.00,2013-01-25 17:12:00,
2013-01-25 11:17:00,35.6,22.3,30.10,WNW,291,3.0,7.0,58,0.00,,BKN250,0.00,VWS V14.00,2013-01-25 17:17:00,
2013-01-25 11:22:00,35.7,22.0,30.10,NNW,330,5.0,8.0,57,0.00,,BKN250,0.00,VWS V14.00,2013-01-25 17:22:00,
2013-01-25 11:27:00,35.6,21.9,30.09,NNW,341,1.0,8.0,57,0.00,,BKN250,0.00,VWS V14.00,2013-01-25 17:27:00,
2013-01-25 11:32:00,35.6,21.9,30.09,NNW,335,2.0,7.0,57,0.00,,BKN250,0.00,VWS V14.00,2013-01-25 17:32:00,
2013-01-25 11:37:00,35.7,22.0,30.09,West,275,4.0,7.0,57,0.00,,BKN250,0.00,VWS V14.00,2013-01-25 17:37:00,
2013-01-25 11:42:00,36.2,22.0,30.09,WNW,299,1.0,8.0,56,0.00,,BKN250,0.00,VWS V14.00,2013-01-25 17:42:00,
2013-01-25 11:47:00,36.1,21.9,30.08,NW,307,2.0,8.0,56,0.00,,BKN250,0.00,VWS V14.00,2013-01-25 17:47:00,
2013-01-25 11:52:00,36.2,22.5,30.08,North,357,0.0,8.0,57,0.00,,BKN250,0.00,VWS V14.00,2013-01-25 17:52:00,
2013-01-25 11:57:00,36.5,22.7,30.08,WNW,297,0.0,8.0,57,0.00,,BKN250,0.00,VWS V14.00,2013-01-25 17:57:00,
2013-01-25 12:02:00,36.7,22.9,30.07,WNW,297,0.0,10.0,57,0.00,,SCT250,0.00,VWS V14.00,2013-01-25 18:02:00,
2013-01-25 12:07:00,37.0,23.2,30.07,North,9,5.0,10.0,57,0.00,,SCT250,0.00,VWS V14.00,2013-01-25 18:07:00,
2013-01-25 12:12:00,36.8,22.6,30.07,NNW,341,1.0,10.0,56,0.00,,SCT250,0.00,VWS V14.00,2013-01-25 18:12:00,
2013-01-25 12:17:00,37.3,23.5,30.07,SW,221,0.0,10.0,57,0.00,,SCT250,0.00,VWS V14.00,2013-01-25 18:17:00,
2013-01-25 12:22:00,37.8,23.5,30.07,WNW,288,2.0,10.0,56,0.00,,SCT250,0.00,VWS V14.00,2013-01-25 18:22:00,
2013-01-25 12:27:00,38.0,23.3,30.06,West,275,0.0,10.0,55,0.00,,SCT250,0.00,VWS V14.00,2013-01-25 18:27:00,
2013-01-25 12:32:00,38.3,23.6,30.06,WNW,299,2.0,5.0,55,0.00,,SCT250,0.00,VWS V14.00,2013-01-25 18:32:00,
2013-01-25 12:37:00,38.7,23.5,30.07,SW,225,4.0,7.0,54,0.00,,SCT250,0.00,VWS V14.00,2013-01-25 18:37:00,
2013-01-25 12:42:00,38.8,23.1,30.06,NW,307,3.0,7.0,53,0.00,,SCT250,0.00,VWS V14.00,2013-01-25 18:42:00,
2013-01-25 12:47:00,38.9,23.2,30.06,North,359,1.0,7.0,53,0.00,,SCT250,0.00,VWS V14.00,2013-01-25 18:47:00,
2013-01-25 12:52:00,39.2,23.5,30.06,NNW,329,1.0,7.0,53,0.00,,SCT250,0.00,VWS V14.00,2013-01-25 18:52:00,
2013-01-25 12:57:00,39.3,23.6,30.06,WNW,289,0.0,7.0,53,0.00,,SCT250,0.00,VWS V14.00,2013-01-25 18:57:00,
2013-01-25 13:02:00,39.3,23.2,30.06,WNW,284,4.0,8.0,52,0.00,,SCT250,0.00,VWS V14.00,2013-01-25 19:02:00,
2013-01-25 13:07:00,39.6,23.4,30.06,WNW,291,4.0,8.0,52,0.00,,SCT250,0.00,VWS V14.00,2013-01-25 19:07:00,
2013-01-25 13:12:00,39.6,23.4,30.05,NNW,331,1.0,8.0,52,0.00,,SCT250,0.00,VWS V14.00,2013-01-25 19:12:00,
2013-01-25 13:17:00,39.9,24.2,30.06,WNW,285,2.0,8.0,53,0.00,,SCT250,0.00,VWS V14.00,2013-01-25 19:17:00,
2013-01-25 13:22:00,40.3,24.5,30.06,SW,229,2.0,8.0,53,0.00,,SCT250,0.00,VWS V14.00,2013-01-25 19:22:00,
2013-01-25 13:27:00,40.2,24.0,30.05,West,267,1.0,8.0,52,0.00,,SCT250,0.00,VWS V14.00,2013-01-25 19:27:00,
2013-01-25 13:32:00,40.3,24.5,30.06,WNW,282,2.0,4.0,53,0.00,,FEW250,0.00,VWS V14.00,2013-01-25 19:32:00,
2013-01-25 13:37:00,40.5,24.3,30.06,WSW,256,2.0,7.0,52,0.00,,FEW250,0.00,VWS V14.00,2013-01-25 19:37:00,
2013-01-25 13:42:00,40.6,23.9,30.05,WNW,299,5.0,8.0,51,0.00,,FEW250,0.00,VWS V14.00,2013-01-25 19:42:00,
2013-01-25 13:47:00,40.8,24.1,30.05,West,277,4.0,8.0,51,0.00,,FEW250,0.00,VWS V14.00,2013-01-25 19:47:00,
2013-01-25 13:52:00,41.2,24.5,30.05,WNW,296,0.0,8.0,51,0.00,,FEW250,0.00,VWS V14.00,2013-01-25 19:52:00,
2013-01-25 13:57:00,41.3,24.1,30.06,North,353,3.0,8.0,50,0.00,,FEW250,0.00,VWS V14.00,2013-01-25 19:57:00,
2013-01-25 14:02:00,41.2,24.0,30.05,WSW,249,3.0,7.0,50,0.00,,FEW250,0.00,VWS V14.00,2013-01-25 20:02:00,
2013-01-25 14:07:00,41.2,24.0,30.05,WNW,294,5.0,7.0,50,0.00,,FEW250,0.00,VWS V14.00,2013-01-25 20:07:00,
2013-01-25 14:12:00,41.1,23.9,30.05,NW,310,0.0,7.0,50,0.00,,FEW250,0.00,VWS V14.00,2013-01-25 20:12:00,
2013-01-25 14:17:00,41.2,23.5,30.05,NNW,332,1.0,7.0,49,0.00,,FEW250,0.00,VWS V14.00,2013-01-25 20:17:00,
2013-01-25 14:22:00,41.4,24.2,30.05,West,274,5.0,7.0,50,0.00,,FEW250,0.00,VWS V14.00,2013-01-25 20:22:00,
2013-01-25 14:27:00,41.8,24.1,30.05,West,281,2.0,7.0,49,0.00,,FEW250,0.00,VWS V14.00,2013-01-25 20:27:00,
2013-01-25 14:32:00,41.7,23.5,30.05,West,278,4.0,8.0,48,0.00,,SCT250,0.00,VWS V14.00,2013-01-25 20:32:00,
2013-01-25 14:37:00,41.7,24.0,30.05,WNW,295,5.0,8.0,49,0.00,,SCT250,0.00,VWS V14.00,2013-01-25 20:37:00,
2013-01-25 14:42:00,41.9,24.1,30.05,WNW,289,0.0,8.0,49,0.00,,SCT250,0.00,VWS V14.00,2013-01-25 20:42:00,
2013-01-25 14:47:00,42.5,24.7,30.05,West,280,5.0,8.0,49,0.00,,SCT250,0.00,VWS V14.00,2013-01-25 20:47:00,
2013-01-25 14:52:00,42.4,24.1,30.05,WNW,282,3.0,8.0,48,0.00,,SCT250,0.00,VWS V14.00,2013-01-25 20:52:00,
2013-01-25 14:57:00,42.4,24.1,30.05,West,267,3.0,8.0,48,0.00,,SCT250,0.00,VWS V14.00,2013-01-25 20:57:00,
2013-01-25 15:02:00,42.5,24.2,30.05,West,272,6.0,7.0,48,0.00,,SCT250,0.00,VWS V14.00,2013-01-25 21:02:00,
2013-01-25 15:07:00,42.5,24.2,30.05,West,279,6.0,8.0,48,0.00,,SCT250,0.00,VWS V14.00,2013-01-25 21:07:00,
2013-01-25 15:12:00,42.6,24.3,30.06,WNW,294,3.0,9.0,48,0.00,,SCT250,0.00,VWS V14.00,2013-01-25 21:12:00,
2013-01-25 15:17:00,42.5,23.7,30.05,West,270,0.0,9.0,47,0.00,,SCT250,0.00,VWS V14.00,2013-01-25 21:17:00,
2013-01-25 15:22:00,42.5,23.7,30.05,WNW,302,4.0,9.0,47,0.00,,SCT250,0.00,VWS V14.00,2013-01-25 21:22:00,
2013-01-25 15:27:00,42.6,23.8,30.05,WNW,298,5.0,9.0,47,0.00,,SCT250,0.00,VWS V14.00,2013-01-25 21:27:00,
2013-01-25 15:32:00,42.7,23.9,30.05,WNW,295,2.0,7.0,47,0.00,,SCT250,0.00,VWS V14.00,2013-01-25 21:32:00,
2013-01-25 15:37:00,42.8,24.0,30.05,NW,306,1.0,7.0,47,0.00,,SCT250,0.00,VWS V14.00,2013-01-25 21:37:00,
2013-01-25 15:42:00,42.7,23.9,30.05,WNW,301,0.0,10.0,47,0.00,,SCT250,0.00,VWS V14.00,2013-01-25 21:42:00,
2013-01-25 15:47:00,42.6,23.8,30.05,WNW,297,1.0,10.0,47,0.00,,SCT250,0.00,VWS V14.00,2013-01-25 21:47:00,
2013-01-25 15:52:00,42.6,23.8,30.05,NW,315,3.0,10.0,47,0.00,,SCT250,0.00,VWS V14.00,2013-01-25 21:52:00,
2013-01-25 15:58:00,42.7,23.9,30.05,NW,306,0.0,10.0,47,0.00,,SCT250,0.00,VWS V14.00,2013-01-25 21:58:00,
2013-01-25 16:03:00,42.7,23.9,30.05,West,271,2.0,10.0,47,0.00,,SCT250,0.00,VWS V14.00,2013-01-25 22:03:00,
2013-01-25 16:08:00,42.8,24.0,30.05,WSW,241,0.0,10.0,47,0.00,,SCT250,0.00,VWS V14.00,2013-01-25 22:08:00,
2013-01-25 16:13:00,42.9,24.1,30.05,West,273,3.0,10.0,47,0.00,,SCT250,0.00,VWS V14.00,2013-01-25 22:13:00,
2013-01-25 16:18:00,43.0,24.2,30.05,West,273,3.0,10.0,47,0.00,,SCT250,0.00,VWS V14.00,2013-01-25 22:18:00,
2013-01-25 16:23:00,43.0,24.2,30.05,West,270,1.0,10.0,47,0.00,,SCT250,0.00,VWS V14.00,2013-01-25 22:23:00,
2013-01-25 16:28:00,43.0,24.2,30.06,West,270,0.0,10.0,47,0.00,,SCT250,0.00,VWS V14.00,2013-01-25 22:28:00,
2013-01-25 16:33:00,42.9,24.1,30.06,WNW,286,0.0,6.0,47,0.00,,SCT250,0.00,VWS V14.00,2013-01-25 22:33:00,
2013-01-25 16:38:00,42.9,24.1,30.05,WNW,290,3.0,6.0,47,0.00,,SCT250,0.00,VWS V14.00,2013-01-25 22:38:00,
2013-01-25 16:43:00,42.7,23.9,30.06,WNW,286,0.0,6.0,47,0.00,,SCT250,0.00,VWS V14.00,2013-01-25 22:43:00,
2013-01-25 16:48:00,42.6,23.8,30.07,WNW,283,3.0,6.0,47,0.00,,SCT250,0.00,VWS V14.00,2013-01-25 22:48:00,
2013-01-25 16:53:00,42.5,23.7,30.07,West,271,3.0,6.0,47,0.00,,SCT250,0.00,VWS V14.00,2013-01-25 22:53:00,
2013-01-25 16:58:00,42.4,24.1,30.06,NW,304,1.0,6.0,48,0.00,,SCT250,0.00,VWS V14.00,2013-01-25 22:58:00,
2013-01-25 17:03:00,42.3,24.0,30.06,NW,306,2.0,5.0,48,0.00,,SCT250,0.00,VWS V14.00,2013-01-25 23:03:00,
2013-01-25 17:08:00,42.2,23.9,30.07,WNW,287,4.0,7.0,48,0.00,,SCT250,0.00,VWS V14.00,2013-01-25 23:08:00,
2013-01-25 17:13:00,42.1,23.8,30.07,West,279,2.0,7.0,48,0.00,,SCT250,0.00,VWS V14.00,2013-01-25 23:13:00,
2013-01-25 17:18:00,42.0,23.8,30.07,West,280,0.0,7.0,48,0.00,,SCT250,0.00,VWS V14.00,2013-01-25 23:18:00,
2013-01-25 17:23:00,41.9,23.7,30.07,West,273,2.0,7.0,48,0.00,,SCT250,0.00,VWS V14.00,2013-01-25 23:23:00,
2013-01-25 17:28:00,41.7,23.5,30.07,West,273,0.0,7.0,48,0.00,,SCT250,0.00,VWS V14.00,2013-01-25 23:28:00,
2013-01-25 17:33:00,41.5,23.3,30.07,West,273,0.0,2.0,48,0.00,,SCT250,0.00,VWS V14.00,2013-01-25 23:33:00,
2013-01-25 17:38:00,41.2,23.0,30.07,West,273,0.0,2.0,48,0.00,,SCT250,0.00,VWS V14.00,2013-01-25 23:38:00,
2013-01-25 17:43:00,41.1,23.4,30.08,West,273,0.0,2.0,49,0.00,,SCT250,0.00,VWS V14.00,2013-01-25 23:43:00,
2013-01-25 17:48:00,40.9,23.2,30.08,West,273,0.0,2.0,49,0.00,,SCT250,0.00,VWS V14.00,2013-01-25 23:48:00,
2013-01-25 17:53:00,40.7,23.0,30.09,West,273,0.0,2.0,49,0.00,,SCT250,0.00,VWS V14.00,2013-01-25 23:53:00,
2013-01-25 17:58:00,40.6,23.0,30.09,West,273,0.0,3.0,49,0.00,,SCT250,0.00,VWS V14.00,2013-01-25 23:58:00,
2013-01-25 18:03:00,40.5,22.9,30.09,West,273,0.0,4.0,49,0.00,,BKN250,0.00,VWS V14.00,2013-01-26 00:03:00,
2013-01-25 18:08:00,40.5,23.3,30.09,West,269,0.0,5.0,50,0.00,,BKN250,0.00,VWS V14.00,2013-01-26 00:08:00,
2013-01-25 18:13:00,40.4,23.2,30.09,West,270,0.0,5.0,50,0.00,,BKN250,0.00,VWS V14.00,2013-01-26 00:13:00,
2013-01-25 18:18:00,40.2,22.6,30.09,West,270,0.0,5.0,49,0.00,,BKN250,0.00,VWS V14.00,2013-01-26 00:18:00,
2013-01-25 18:23:00,40.2,22.6,30.09,West,270,0.0,5.0,49,0.00,,BKN250,0.00,VWS V14.00,2013-01-26 00:23:00,
2013-01-25 18:28:00,40.1,22.5,30.09,West,269,0.0,5.0,49,0.00,,BKN250,0.00,VWS V14.00,2013-01-26 00:28:00,
2013-01-25 18:33:00,40.0,22.4,30.09,West,270,0.0,0.0,49,0.00,,BKN250,0.00,VWS V14.00,2013-01-26 00:33:00,
2013-01-25 18:38:00,39.9,22.8,30.09,West,269,0.0,1.0,50,0.00,,BKN250,0.00,VWS V14.00,2013-01-26 00:38:00,
2013-01-25 18:43:00,39.8,22.7,30.09,West,270,0.0,1.0,50,0.00,,BKN250,0.00,VWS V14.00,2013-01-26 00:43:00,
2013-01-25 18:48:00,39.6,22.5,30.09,West,270,0.0,2.0,50,0.00,,BKN250,0.00,VWS V14.00,2013-01-26 00:48:00,
2013-01-25 18:53:00,39.5,22.4,30.10,West,270,0.0,2.0,50,0.00,,BKN250,0.00,VWS V14.00,2013-01-26 00:53:00,
2013-01-25 18:58:00,39.4,22.3,30.09,West,269,0.0,4.0,50,0.00,,BKN250,0.00,VWS V14.00,2013-01-26 00:58:00,
2013-01-25 19:03:00,39.3,22.2,30.09,West,269,0.0,5.0,50,0.00,,BKN250,0.00,VWS V14.00,2013-01-26 01:03:00,
2013-01-25 19:08:00,39.3,22.2,30.09,West,269,2.0,5.0,50,0.00,,BKN250,0.00,VWS V14.00,2013-01-26 01:08:00,
2013-01-25 19:13:00,39.3,22.2,30.09,West,270,0.0,5.0,50,0.00,,BKN250,0.00,VWS V14.00,2013-01-26 01:13:00,
2013-01-25 19:18:00,39.2,22.1,30.09,West,269,0.0,5.0,50,0.00,,BKN250,0.00,VWS V14.00,2013-01-26 01:18:00,
2013-01-25 19:23:00,39.1,22.0,30.10,West,269,0.0,5.0,50,0.00,,BKN250,0.00,VWS V14.00,2013-01-26 01:23:00,
2013-01-25 19:28:00,38.9,21.9,30.09,West,270,0.0,5.0,50,0.00,,BKN250,0.00,VWS V14.00,2013-01-26 01:28:00,
2013-01-25 19:33:00,38.8,21.8,30.09,West,270,0.0,2.0,50,0.00,,BKN250,0.00,VWS V14.00,2013-01-26 01:33:00,
2013-01-25 19:38:00,38.7,21.7,30.10,West,269,0.0,2.0,50,0.00,,BKN250,0.00,VWS V14.00,2013-01-26 01:38:00,
2013-01-25 19:43:00,38.5,21.5,30.09,West,269,0.0,3.0,50,0.00,,BKN250,0.00,VWS V14.00,2013-01-26 01:43:00,
2013-01-25 19:48:00,38.5,22.0,30.10,West,269,0.0,3.0,51,0.00,,BKN250,0.00,VWS V14.00,2013-01-26 01:48:00,
2013-01-25 19:53:00,38.5,21.5,30.10,West,269,0.0,3.0,50,0.00,,BKN250,0.00,VWS V14.00,2013-01-26 01:53:00,
2013-01-25 19:58:00,38.5,21.5,30.10,West,269,2.0,4.0,50,0.00,,BKN250,0.00,VWS V14.00,2013-01-26 01:58:00,
2013-01-25 20:03:00,38.6,21.6,30.10,West,269,0.0,4.0,50,0.00,,BKN250,0.00,VWS V14.00,2013-01-26 02:03:00,
2013-01-25 20:08:00,38.5,21.5,30.09,WSW,252,0.0,5.0,50,0.00,,BKN250,0.00,VWS V14.00,2013-01-26 02:08:00,
2013-01-25 20:13:00,38.4,21.4,30.10,WSW,252,0.0,5.0,50,0.00,,BKN250,0.00,VWS V14.00,2013-01-26 02:13:00,
2013-01-25 20:18:00,38.3,21.8,30.10,WSW,252,0.0,5.0,51,0.00,,BKN250,0.00,VWS V14.00,2013-01-26 02:18:00,
2013-01-25 20:23:00,38.2,21.7,30.10,WSW,253,2.0,5.0,51,0.00,,BKN250,0.00,VWS V14.00,2013-01-26 02:23:00,
2013-01-25 20:28:00,38.2,21.7,30.10,NW,308,0.0,5.0,51,0.00,,BKN250,0.00,VWS V14.00,2013-01-26 02:28:00,
2013-01-25 20:33:00,38.3,21.8,30.10,WNW,286,3.0,4.0,51,0.00,,BKN250,0.00,VWS V14.00,2013-01-26 02:33:00,
2013-01-25 20:38:00,38.2,21.7,30.10,West,269,0.0,4.0,51,0.00,,BKN250,0.00,VWS V14.00,2013-01-26 02:38:00,
2013-01-25 20:43:00,38.1,21.6,30.11,West,269,0.0,4.0,51,0.00,,BKN250,0.00,VWS V14.00,2013-01-26 02:43:00,
2013-01-25 20:48:00,38.1,21.6,30.11,NW,306,3.0,5.0,51,0.00,,BKN250,0.00,VWS V14.00,2013-01-26 02:48:00,
2013-01-25 20:53:00,38.1,21.6,30.10,WNW,295,3.0,5.0,51,0.00,,BKN250,0.00,VWS V14.00,2013-01-26 02:53:00,
2013-01-25 20:58:00,38.0,21.5,30.10,West,268,1.0,5.0,51,0.00,,BKN250,0.00,VWS V14.00,2013-01-26 02:58:00,
2013-01-25 21:03:00,38.0,21.5,30.11,West,265,3.0,4.0,51,0.00,,SCT250,0.00,VWS V14.00,2013-01-26 03:03:00,
2013-01-25 21:08:00,38.0,21.5,30.11,West,265,0.0,4.0,51,0.00,,SCT250,0.00,VWS V14.00,2013-01-26 03:08:00,
2013-01-25 21:13:00,37.9,21.9,30.10,West,264,0.0,4.0,52,0.00,,SCT250,0.00,VWS V14.00,2013-01-26 03:13:00,
2013-01-25 21:18:00,37.9,21.4,30.11,West,273,0.0,5.0,51,0.00,,SCT250,0.00,VWS V14.00,2013-01-26 03:18:00,
2013-01-25 21:23:00,38.0,21.5,30.11,WNW,283,4.0,7.0,51,0.00,,SCT250,0.00,VWS V14.00,2013-01-26 03:23:00,
2013-01-25 21:28:00,37.9,21.4,30.11,West,270,7.0,7.0,51,0.00,,SCT250,0.00,VWS V14.00,2013-01-26 03:28:00,
2013-01-25 21:33:00,38.0,22.0,30.11,WNW,296,1.0,3.0,52,0.00,,SCT250,0.00,VWS V14.00,2013-01-26 03:33:00,
2013-01-25 21:38:00,38.0,22.0,30.12,WNW,290,6.0,6.0,52,0.00,,SCT250,0.00,VWS V14.00,2013-01-26 03:38:00,
2013-01-25 21:43:00,38.0,21.5,30.12,WNW,285,9.0,9.0,51,0.00,,SCT250,0.00,VWS V14.00,2013-01-26 03:43:00,
2013-01-25 21:48:00,38.1,22.0,30.12,NNW,332,0.0,9.0,52,0.00,,SCT250,0.00,VWS V14.00,2013-01-26 03:48:00,
2013-01-25 21:53:00,37.9,21.4,30.12,WNW,295,2.0,9.0,51,0.00,,SCT250,0.00,VWS V14.00,2013-01-26 03:53:00,
2013-01-25 21:58:00,37.9,21.4,30.12,WNW,288,6.0,9.0,51,0.00,,SCT250,0.00,VWS V14.00,2013-01-26 03:58:00,
2013-01-25 22:03:00,37.9,21.9,30.12,WNW,288,3.0,4.0,52,0.00,,SCT250,0.00,VWS V14.00,2013-01-26 04:03:00,
2013-01-25 22:08:00,37.8,21.8,30.13,West,278,1.0,5.0,52,0.00,,SCT250,0.00,VWS V14.00,2013-01-26 04:08:00,
2013-01-25 22:13:00,37.7,21.7,30.13,WNW,298,2.0,5.0,52,0.00,,SCT250,0.00,VWS V14.00,2013-01-26 04:13:00,
2013-01-25 22:18:00,37.7,21.7,30.13,West,271,5.0,7.0,52,0.00,,SCT250,0.00,VWS V14.00,2013-01-26 04:18:00,
2013-01-25 22:23:00,37.7,21.7,30.13,West,268,0.0,7.0,52,0.00,,SCT250,0.00,VWS V14.00,2013-01-26 04:23:00,
2013-01-25 22:28:00,37.6,21.6,30.14,West,270,0.0,7.0,52,0.00,,SCT250,0.00,VWS V14.00,2013-01-26 04:28:00,
2013-01-25 22:33:00,37.5,21.9,30.14,West,273,3.0,5.0,53,0.00,,SCT250,0.00,VWS V14.00,2013-01-26 04:33:00,
2013-01-25 22:38:00,37.5,21.9,30.14,NW,306,2.0,5.0,53,0.00,,SCT250,0.00,VWS V14.00,2013-01-26 04:38:00,
2013-01-25 22:43:00,37.4,21.9,30.14,WNW,294,5.0,5.0,53,0.00,,SCT250,0.00,VWS V14.00,2013-01-26 04:43:00,
2013-01-25 22:48:00,37.3,21.8,30.14,West,279,0.0,5.0,53,0.00,,SCT250,0.00,VWS V14.00,2013-01-26 04:48:00,
2013-01-25 22:53:00,37.2,22.1,30.15,West,281,1.0,5.0,54,0.00,,SCT250,0.00,VWS V14.00,2013-01-26 04:53:00,
2013-01-25 22:58:00,37.1,22.0,30.15,WNW,282,1.0,5.0,54,0.00,,SCT250,0.00,VWS V14.00,2013-01-26 04:58:00,
2013-01-25 23:00:00,37.0,21.9,30.15,WNW,282,0.0,0.0,54,0.00,,SCT250,0.00,VWS V14.00,2013-01-26 05:00:00,
2013-01-25 23:01:00,37.0,21.9,30.15,WNW,282,0.0,0.0,54,0.00,,BKN250,0.00,VWS V14.00,2013-01-26 05:01:00,
2013-01-25 23:06:00,36.9,21.8,30.15,WNW,282,0.0,4.0,54,0.00,,BKN250,0.00,VWS V14.00,2013-01-26 05:06:00,
2013-01-25 23:11:00,36.9,21.8,30.15,WNW,282,0.0,4.0,54,0.00,,BKN250,0.00,VWS V14.00,2013-01-26 05:11:00,
2013-01-25 23:16:00,36.7,22.1,30.15,WNW,282,0.0,4.0,55,0.00,,BKN250,0.00,VWS V14.00,2013-01-26 05:16:00,
2013-01-25 23:21:00,36.7,22.1,30.16,WNW,282,0.0,4.0,55,0.00,,BKN250,0.00,VWS V14.00,2013-01-26 05:21:00,
2013-01-25 23:26:00,36.6,22.0,30.16,WNW,300,2.0,4.0,55,0.00,,BKN250,0.00,VWS V14.00,2013-01-26 05:26:00,
2013-01-25 23:31:00,36.5,21.9,30.16,North,0,0.0,0.0,55,0.00,,BKN250,0.00,VWS V14.00,2013-01-26 05:31:00,
2013-01-25 23:36:00,36.5,21.9,30.16,NW,307,0.0,2.0,55,0.00,,BKN250,0.00,VWS V14.00,2013-01-26 05:36:00,
2013-01-25 23:41:00,36.4,21.8,30.16,NW,312,1.0,3.0,55,0.00,,BKN250,0.00,VWS V14.00,2013-01-26 05:41:00,
2013-01-25 23:46:00,36.4,21.8,30.16,NNW,344,1.0,4.0,55,0.00,,BKN250,0.00,VWS V14.00,2013-01-26 05:46:00,
2013-01-25 23:51:00,36.4,22.2,30.16,North,0,0.0,4.0,56,0.00,,BKN250,0.00,VWS V14.00,2013-01-26 05:51:00,
2013-01-25 23:56:00,36.3,22.1,30.16,North,0,0.0,4.0,56,0.00,,BKN250,0.00,VWS V14.00,2013-01-26 05:56:00,